www.pogodaiklimat.ru

Погода и климат >> Архив погоды >> Нигер >> Maine-Soroa


ПОГОДА в Maine-Soroa

  • Прогноз погоды в Maine-Soroa
  • Монитор погоды в Maine-Soroa
  • Климат города

АРХИВ ПОГОДЫ в Maine-Soroa

Время (UTC), дата Ветер
(напр.,м/с)
 
Видим.   Явления Облачность Т
(С)
Тd
(С)
f
(%)
Тe
(С)
Тes
(С)
Комфортность P
(гПа)
Po
(гПа)
Тmin
(С)
Tmax
(С)
R
(мм)
R24
(мм)
S
(см)
06 6.12 СВ 2 500 м пыль {туман} 9/0
[Ac trans Cs]
+17.8 +2.0 35 +18 +18 1014.8 976.4 +17.5
09 6.12 В 8 3000 м пыль {туман} 6/0
[Ci sp]
+24.0 +0.8 22 +23 +24 комфорт 1015.4 977.2
12 6.12 СВ 8 10 км 9/0
[Cs]
+28.4 -0.3 15 +26 +28 жарко 1012.4 974.7
15 6.12 СВ 4 10 км 9/0
[Cs]
+29.8 +0.7 15 +27 +29 жарко 1010.5 972.6
18 6.12 СВ 2 12 км 9/0
[Cs]
+25.6 +2.0 21 +24 +24 комфорт 1012.5 974.2 +31.0
21 6.12 СВ 6 10 км 9/0
[Cs]
+22.4 +0.5 23 +22 +22 комфорт 1013.5 975.4
00 7.12 СВ 4 1000 м пыль 9/0
[Cs]
+21.0 +2.1 29 +21 +21 комфорт 1012.5 974.5
03 7.12 СВ 4 400 м пыль {туман} 9/0
[Cs]
+20.0 +2.6 32 +20 +20 1012.6 974.7
06 7.12 СВ 2 300 м пыль {туман} 9/0
[Cs]
+18.0 +3.3 38 +19 +19 1014.0 975.6 +17.6
09 7.12 В 4 1000 м пыль {туман} 9/0
[Cs]
+24.5 +2.9 24 +24 +29 комфорт 1014.9 976.7
12 7.12 В 4 10 км 9/0
[Cs]
+29.2 +5.4 22 +28 +35 жарко 1012.5 974.1
15 7.12 СВ 2 15 км 9/0
[Cs]
+30.0 +7.5 24 +29 +32 жарко 1010.4 972.6
18 7.12 СВ 2 10 км 9/0
[Cs]
+24.6 +3.4 25 +24 +24 комфорт 1012.8 974.4 +31.2
21 7.12 СВ 2 10 км 9/0
[Cs]
+20.6 -0.2 25 +21 +21 комфорт 1014.3 976.0
00 8.12 СВ 4 10 км 9/0
[Cs]
+19.2 +0.1 28 +19 +19 1013.6 975.6
03 8.12 СВ 2 4000 м пыль 9/0
[Cs]
+17.4 +1.0 33 +18 +18 1013.1 975.0
06 8.12 СВ 2 400 м пыль {туман} 9/0
[Cs]
+15.4 +2.2 41 +15 +16 1015.0 976.4 +15.0
09 8.12 В 8 1500 м пыль {туман} 9/0
[Cs]
+23.6 +3.2 26 +23 +24 комфорт 1016.5 978.1
12 8.12 СВ 4 6000 м пыль {туман} 9/0
[Cs]
+28.6 +2.8 19 +27 +34 жарко 1014.2 976.1
15 8.12 СВ 4 8000 м мгла 9/0
[Cs]
+29.0 +2.7 19 +27 +29 жарко 1012.3 974.2
18 8.12 СВ 2 10 км 9/0
[Cs]
+24.0 +3.6 26 +23 +23 комфорт 1014.2 975.6 +30.6
21 8.12 СВ 2 10 км 9/0
[Cs]
+20.0 +2.2 31 +21 +21 комфорт 1015.2 976.9
00 9.12 СВ 2 10 км 9/0
[Cs]
+18.6 +1.7 32 +19 +19 1015.0 976.9
03 9.12 СВ 2 10 км 9/0
[Cs]
+16.6 +2.2 38 +17 +17 1015.2 976.9
06 9.12 СВ 2 15 км 9/0
[Cs]
+15.2 +1.9 41 +15 +15 1017.3 978.5 +14.5
09 9.12 СВ 2 20 км 6/0
[Ci sp]
+25.2 +2.5 23 +24 +33 комфорт 1018.2 979.8
12 9.12 СВ 2 20 км 6/0
[Ci sp]
+29.0 +0.2 15 +26 +38 жарко 1016.2 978.0
15 9.12 С 2 20 км 6/0
[Ci sp]
+29.5 +1.5 17 +27 +30 жарко 1014.0 975.8
18 9.12 СВ 2 10 км 9/0
[Cs]
+23.8 +3.2 26 +23 +23 комфорт 1016.0 977.3 +31.0
21 9.12 СВ 2 10 км 9/0
[Cs]
+20.0 +0.1 26 +21 +21 комфорт 1017.7 979.3
00 10.12 СВ 4 10 км 9/0
[Cs]
+18.0 -0.1 29 +18 +18 1016.9 978.7
03 10.12 СВ 2 10 км 9/0
[Cs]
+16.4 +0.9 35 +17 +17 1016.4 978.1
06 10.12 СВ 2 15 км 9/0
[Cs]
+15.0 +0.9 38 +15 +15 1017.7 978.9 +14.8
09 10.12 СВ 6 10 км 6/0
[Ci sp]
+23.5 +0.1 21 +22 +26 комфорт 1018.9 980.4
15 10.12 СВ 2 15 км 9/0
[Cs]
+29.4 -0.4 14 +27 +29 жарко 1013.8 975.6
18 10.12 СВ 2 15 км 9/0
[Cs]
+24.0 +3.3 26 +23 +23 комфорт 1015.1 976.4 +30.4
21 10.12 СВ 2 15 км 6/0
[Ci sp]
+21.2 +1.7 27 +21 +21 комфорт 1015.9 977.7
00 11.12 СВ 2 10 км 9/0
[Cs]
+19.0 0.0 28 +20 +20 1015.9 977.7
03 11.12 СВ 4 4000 м пыль 9/0
[Cs]
+17.0 +0.3 32 +17 +17 1015.3 977.0
06 11.12 СВ 4 800 м пыль {туман} 9/0
[Ac lent Cs]
+15.2 0.0 35 +14 +15 1017.0 978.3 +14.6
12 11.12 СВ 4 10 км 6/0
[Ci sp]
+27.5 -3.7 13 +25 +33 комфорт 1015.6 977.4
15 11.12 СВ 4 15 км 9/0
[Ac lent Cs]
+28.6 -3.5 12 +26 +27 жарко 1014.2 976.0
18 11.12 СВ 4 10 км 9/0
[Cs]
+23.7 -2.8 17 +22 +22 комфорт 1015.9 977.2 +29.9
21 11.12 СВ 2 10 км 9/0
[Cs]
+20.5 -2.9 20 +21 +21 комфорт 1016.9 968.4
00 12.12 СВ 2 10 км 9/0
[Cs]
+18.0 -2.0 26 +19 +19 1016.3 977.9
03 12.12 СВ 4 10 км 9/0
[Cs]
+17.0 -3.6 24 +17 +17 1016.0 977.7
06 12.12 СВ 8 800 м пыль {туман} 9/0
[Ac trans Cs]
+15.6 -3.1 27 +14 +14 1017.0 978.3 +15.4
09 12.12 В 8 10 км 9/0
[Cs]
+23.5 -6.5 13 +22 +23 комфорт 1018.1 979.6
12 12.12 В 6 15 км 9/0
[Cs]
+28.0 -2.3 14 +25 +30 комфорт 1015.2 976.9
15 12.12 С 2 15 км 9/0
[Cs]
+29.0 -4.4 11 +26 +29 жарко 1013.8 975.6
18 12.12 СВ 2 15 км 9/0
[Cs]
+24.0 -1.6 18 +22 +22 комфорт 1015.4 976.7 +30.2
21 12.12 СВ 2 10 км 9/0
[Cs]
+20.8 -1.6 22 +21 +21 комфорт 1016.3 977.9
00 13.12 СВ 2 10 км 9/0
[Cs]
+18.2 -2.8 24 +19 +19 1017.1 978.8
03 13.12 СВ 2 10 км 9/0
[Cs]
+16.6 -2.3 27 +17 +17 1015.1 976.8

 

Местоположение метеостанции Maine-Soroa (Нигер): широта 13.23 долгота 11.98 высота над уровнем моря 337 м.

В архиве по умолчанию представлена погода в Maine-Soroa за последнюю неделю. Архивные данные за месяц целиком и за предыдущие месяцы, начиная с января 2011 года, Вы можете получить, выбрав интересующий диапазон дат из раскрывающегося списка и нажав кнопку "Ввод!".


*Определитесь, кто Вы:
робот инопланетянин человек

Внимание! Время в таблицах - всемирное. Для получения местного времени необходимо прибавить поправку, которая в Maine-Soroa равна 1 ч.

Смотрите также архив погоды в соседних городах и на ближайших метеорологических станциях:

Погода в Diffa (Нигер) (89 км)
Погода в Nguigmi (Нигер) (167 км)
Погода в Goure (Нигер) (200 км)
Погода в Bol-Berim (Чад) (300 км)
Погода в Zinder (Нигер) (330 км)
Погода в Magaria (Нигер) (332 км)
Погода в Ndjamena (Чад) (353 км)
Погода в Mao (Чад) (377 км)
Погода в Cano (Нигерия) (397 км)
Погода в Yola (Нигерия) (448 км)

Пояснения к столбцам:

Ветер - указаны скорость ветра в м/с - средняя за 10 мин, порывы в срок и между сроками (в фигурных скобках) и направление, откуда дует ветер: С - северный, СВ - северо-восточный, В - восточный, ЮВ - юго-восточный, Ю - южный, ЮЗ - юго-западный, З - западный, СЗ - северо-западный.
Видимость - горизонтальная дальность видимости в метрах или километрах. При видимости от 1 до 10 км при отсутствии осадков обычно наблюдается дымка, при ухудшении видимости до 1 км и менее - туман. В сухую погоду видимость может ухудшаться дымом, пылью или мглою.
Явления - указаны атмосферные явления, наблюдавшиеся в срок или в последний час перед сроком; фигурными скобками обозначены явления, наблюдавшиеся между сроками (за 1-3 часа до срока); квадратными скобками обозначены град или гололедные отложения с указанием их диаметра в мм.
Облачность - указаны через наклонную черту общая и нижняя облачность в баллах и высота нижней границы облаков в метрах; квадратными скобками обозначены формы облаков: Ci - перистые, Cs - перисто-слоистые, Cc - перисто-кучевые, Ac - высококучевые, As - высокослоистые, Sc - слоисто-кучевые, Ns - слоисто-дождевые, Cu - кучевые, Cb - кучево-дождевые. Подробнее классификацию облаков см. в Атласе облаков (PDF).
T - Температура воздуха - температура, измеренная на высоте 2 м над землей.
Td - Температура точки росы - температура, при понижении до которой содержащийся в воздухе водяной пар достигнет насыщения.
f - Относительная влажность воздуха - влажноcть воздуха, измеренная на высоте 2 м над землей.
Te - Эффективная температура - температура, которую ощущает одетый по сезону человек в тени. Характеристика душности погоды. При расчете учитывается влияние влажности воздуха и скорости ветра на теплоощущения человека.
Tes - Эффективная температура на солнце - температура, которую ощущает человек, с поправкой на солнечный нагрев. Характеристика знойности погоды. Зависит от высоты солнца над горизонтом, облачности и скорости ветра. Ночью, в пасмурную погоду, а также при ветре 12 м/с и более поправка равна нулю.
P - Атмосферное давление - приведенное к уровню моря атмосферное давление.
Po - Атмосферное давление - измеренное на уровне метеостанции атмосферное давление.
Tmin - Минимальная температура - минимум температуры воздуха на высоте 2 м над землей.
Tmax - Максимальная температура - максимум температуры воздуха на высоте 2 м над землей.
R - Количество осадков - Количество выпавших осадков за период времени, мм. При наведении курсора мыши на число - период времени, за который выпало указанное количество осадков.
R24 - Количество осадков - Количество выпавших осадков за 24 часа, мм.
S - Снежный покров - Высота снежного покрова, см. При наведении курсора мыши на число - состояние снежного покрова и степень покрытия местности в баллах.